[[{"header":{"parameterUnit":"m.s-1","parameterCategory":1,"la1":30.2991,"la2":30.254,"lo1":-89.0895,"lo2":-89.0444,"dx":0.0017,"dy":0.0017,"nx":28,"ny":28,"refTime":"2022-12-14T09:00:00:Z","depth":0,"parameterNumber":2,"parameterNumberName":"U-component_of_WINDS"},"data":[0,0,0,0,0,0,0,0,0,0,0,0,0,0,0,0,0,0,0,0,0,0,0,0,0,0,0,0,0,0,0,0,0,0,0,0,0,0,0,0,0,0,0,0,0,0,0,0,0,0,0,0,0,0,0,0,0,0,2.633,2.6331,0,2.6447,2.6448,2.645,2.6416,2.6414,2.6411,2.6409,2.6531,2.6536,2.6541,0,0,0,0,0,0,0,0,0,0,0,0,0,2.6078,2.6083,2.633,2.6331,2.6333,2.6447,2.6449,2.645,2.6417,2.6414,2.6411,2.6408,2.6529,2.6535,2.6542,0,0,0,0,0,0,0,0,0,0,0,0,0,2.6191,2.6085,2.6329,2.633,2.6331,2.6447,2.6449,2.6451,2.6417,2.6414,2.641,2.6407,2.6527,2.6535,2.6543,2.6666,0,0,2.6568,2.6571,0,0,0,0,0,0,0,0,2.6185,2.62,2.6328,2.633,2.6331,2.6413,2.6404,2.6523,2.6418,2.6385,2.6409,2.6405,2.6495,2.6505,2.6535,2.6671,2.6676,2.6568,2.6573,2.6577,2.6579,0,0,0,0,0,0,0,2.6177,2.6195,2.6376,2.633,2.6332,2.6325,2.6337,2.6427,2.6458,2.6387,2.6385,2.6399,2.6495,2.6527,2.6538,2.6678,2.6568,2.6576,2.6581,2.6584,2.6923,2.6927,0,0,0,0,0,0,2.6168,2.6189,2.6372,2.638,2.6248,2.6332,2.6345,2.6391,2.6457,2.6464,2.6402,2.6397,2.6515,2.6528,2.6542,2.6691,2.6577,2.6585,2.6589,2.6919,2.6924,2.6928,0,0,0,0,0,0,2.6162,2.6184,2.6368,2.6284,2.6306,2.634,2.6391,2.6395,2.6427,2.6469,2.6474,2.643,2.6513,2.653,2.6635,2.6695,2.6588,2.6596,2.6914,2.692,2.6926,2.6989,0,0,0,0,0,0,2.6155,2.6183,2.6229,2.6285,2.6311,2.6459,2.6395,2.64,2.6442,2.6436,2.6496,2.6502,2.6511,2.6623,2.6644,2.6704,2.6602,2.6909,2.6917,2.6924,2.6982,2.6997,2.7009,0,0,0,0,0,2.6146,2.6242,2.6232,2.6254,2.637,2.6462,2.6477,2.6485,2.6446,2.6494,2.6521,2.65,2.6685,2.6634,2.6657,2.6721,2.6905,2.6914,2.6923,2.6976,2.6994,2.7009,0,0,0,0,0,0,2.6192,2.6249,2.6238,2.6355,2.6404,2.6456,2.6516,2.6504,2.6565,2.6557,2.6565,2.6579,2.6687,2.6714,2.6657,2.6844,2.6789,2.6803,2.6822,2.6839,2.6853,2.6844,2.6609,0,0,0,0,0,2.6216,2.6286,2.6332,2.6431,2.6456,2.6482,2.6523,2.6525,2.6576,2.6596,2.6631,2.6682,2.6751,2.6797,2.6863,2.6986,2.6999,2.7041,2.7055,2.7066,2.7078,2.7146,2.7166,2.6958,2.6958,2.6958,0,0,2.6266,2.6306,2.6349,2.6441,2.6479,2.6552,2.65,2.6579,2.6633,2.6609,2.671,2.6737,2.6794,2.6909,2.6962,2.6936,2.7138,2.7078,2.7086,2.7092,2.7158,2.7177,2.7195,2.6964,2.6963,2.6962,0,0,2.6394,2.6431,2.6517,2.6557,2.6615,2.6632,2.6653,2.6708,2.6725,2.6827,2.681,2.6876,2.6995,2.7037,2.7074,2.7219,2.7203,2.7241,2.7312,2.7378,2.7395,2.7409,2.7462,2.748,2.7253,2.7253,2.7253,0,2.6448,2.6556,2.6563,2.6644,2.6685,2.6667,2.6755,2.6793,2.6871,2.69,2.687,2.702,2.7057,2.7182,2.7218,2.7248,2.7273,2.7233,2.7392,2.7406,2.742,2.747,2.749,2.7257,2.7256,2.7256,2.7256,0,2.6621,2.6696,2.6759,2.6835,2.6883,2.6967,2.6988,2.7036,2.7035,2.7055,2.716,2.7204,2.7279,2.7309,2.7308,2.7435,2.7417,2.7389,2.7335,2.7444,2.7491,2.751,2.7263,2.7261,2.726,2.7259,0,0,2.6779,2.6858,2.6881,2.6916,2.698,2.7039,2.7123,2.7196,2.7238,2.7293,2.7363,2.7466,2.7441,2.7483,2.7487,2.7545,2.7659,2.7511,2.7512,2.7537,2.7801,2.7821,2.7843,2.7649,2.7652,2.7655,2.7796,0,2.6913,2.706,2.7069,2.7202,2.7273,2.7257,2.7331,2.7378,2.74,2.7464,2.7488,2.756,2.7522,2.7548,2.7605,2.7633,2.7712,2.7623,2.7715,2.7718,2.7701,2.7868,2.7889,2.802,2.7815,2.7818,2.782,0,2.7087,2.7147,2.7288,2.7343,2.7373,2.7438,2.7507,2.7568,2.7622,2.7634,2.7682,2.7678,2.7765,2.7708,2.7829,2.7768,2.7807,2.7826,2.7832,2.784,2.7775,2.7881,2.8062,2.8081,2.7849,2.7847,2.7845,0,2.7189,2.7305,2.7405,2.7434,2.7501,2.7548,2.7578,2.7629,2.7673,2.7733,2.7762,2.7832,2.787,2.7925,2.7941,2.7898,2.8061,2.8005,2.8074,2.8074,2.8108,2.8106,2.8298,2.8134,2.8134,2.8133,2.8133,0,2.7337,2.7424,2.7451,2.7512,2.7609,2.762,2.7716,2.7743,2.7789,2.7855,2.7847,2.7909,2.7926,2.7993,2.8006,2.8104,2.8121,2.8134,2.8136,2.8134,2.8133,2.8159,2.815,2.8139,2.8137,2.8136,2.8136,0,2.7467,2.7489,2.7596,2.7651,2.7667,2.7736,2.7783,2.7842,2.7863,2.7948,2.7968,2.8001,2.8079,2.81,2.8194,2.8202,2.8318,2.8312,2.8299,2.8299,2.8367,2.836,2.8582,2.8612,2.8429,2.8431,2.8432,0,2.7559,2.7626,2.7688,2.7732,2.7764,2.7835,2.788,2.7893,2.7941,2.8008,2.806,2.8136,2.8198,2.8323,2.8356,2.8428,2.8423,2.8496,2.8434,2.843,2.8424,2.842,2.8427,2.8508,2.851,2.8511,2.8512,0,2.7722,2.7729,2.7794,2.7864,2.7918,2.7973,2.8026,2.8063,2.8084,2.8138,2.8217,2.8266,2.8361,2.8437,2.851,2.8542,2.8531,2.8532,2.8552,2.855,2.854,2.8547,2.8331,2.8527,2.8525,2.8524,2.8523,2.8523,2.7836,2.7894,2.7947,2.802,2.8062,2.8112,2.817,2.8199,2.8265,2.8343,2.8348,2.8434,2.8488,2.8584,2.862,2.8688,2.8667,2.8695,2.8702,2.8709,2.8715,2.853,2.8702,2.8701,2.8701,2.8701,2.8701,0,2.7997,2.8031,2.8098,2.8172,2.823,2.8215,2.8274,2.8323,2.8399,2.845,2.8512,2.8603,2.8678,2.8717,2.8791,2.8838,2.8836,2.8857,2.8854,2.8861,2.873,2.8705,2.8858,2.8858,2.8858,2.8858,2.8858,2.8858,2.8088,2.8186,2.8201,2.832,2.8353,2.8437,2.8472,2.8518,2.8559,2.8662,2.8724,2.8749,2.8796,2.8873,2.8941,2.8951,2.8979,2.9003,2.901,2.8887,2.8871,2.8855,2.8832,2.9009,2.9009,2.9136,2.9137,2.9138]},{"header":{"parameterUnit":"m.s-1","parameterCategory":1,"la1":30.2991,"la2":30.254,"lo1":-89.0895,"lo2":-89.0444,"dx":0.0017,"dy":0.0017,"nx":28,"ny":28,"refTime":"2022-12-14T09:00:00:Z","depth":0,"parameterNumber":3,"parameterNumberName":"V-component_of_WINDS"},"data":[0,0,0,0,0,0,0,0,0,0,0,0,0,0,0,0,0,0,0,0,0,0,0,0,0,0,0,0,0,0,0,0,0,0,0,0,0,0,0,0,0,0,0,0,0,0,0,0,0,0,0,0,0,0,0,0,0,0,-2.7768,-2.777,0,-2.7881,-2.7882,-2.7883,-2.7871,-2.7869,-2.7868,-2.7866,-2.798,-2.7985,-2.7989,0,0,0,0,0,0,0,0,0,0,0,0,0,-2.7543,-2.7547,-2.7768,-2.777,-2.7771,-2.788,-2.7882,-2.7884,-2.7871,-2.7869,-2.7867,-2.7865,-2.7979,-2.7984,-2.799,0,0,0,0,0,0,0,0,0,0,0,0,0,-2.7647,-2.7548,-2.7768,-2.7778,-2.778,-2.788,-2.7882,-2.7884,-2.7872,-2.7869,-2.7867,-2.7864,-2.7977,-2.7984,-2.7991,-2.8087,0,0,-2.8012,-2.8015,0,0,0,0,0,0,0,0,-2.7641,-2.7655,-2.7775,-2.7778,-2.778,-2.7859,-2.7844,-2.7952,-2.7873,-2.7837,-2.7866,-2.7863,-2.7942,-2.7952,-2.7979,-2.8093,-2.8097,-2.8013,-2.8017,-2.802,-2.8022,0,0,0,0,0,0,0,-2.7634,-2.765,-2.7813,-2.7777,-2.778,-2.7777,-2.7789,-2.7865,-2.7903,-2.784,-2.7839,-2.7853,-2.7943,-2.7972,-2.7981,-2.8099,-2.8012,-2.8019,-2.8023,-2.8026,-2.8298,-2.8301,0,0,0,0,0,0,-2.7624,-2.7644,-2.7809,-2.7816,-2.7702,-2.7783,-2.7796,-2.7836,-2.7902,-2.791,-2.7855,-2.7852,-2.7961,-2.7973,-2.7985,-2.8103,-2.802,-2.8027,-2.8031,-2.8295,-2.8299,-2.8302,0,0,0,0,0,0,-2.7619,-2.7639,-2.7805,-2.773,-2.7751,-2.779,-2.7835,-2.784,-2.7869,-2.7914,-2.792,-2.7878,-2.7959,-2.7975,-2.8062,-2.8106,-2.803,-2.8036,-2.8292,-2.8296,-2.83,-2.8338,0,0,0,0,0,0,-2.7613,-2.7637,-2.7674,-2.7731,-2.7755,-2.788,-2.7838,-2.7844,-2.7881,-2.7878,-2.7937,-2.7944,-2.7959,-2.8052,-2.8069,-2.8115,-2.8042,-2.8288,-2.8294,-2.8299,-2.8333,-2.8344,-2.8352,0,0,0,0,0,-2.7605,-2.768,-2.7676,-2.7696,-2.7802,-2.7882,-2.7896,-2.7912,-2.7885,-2.7923,-2.7951,-2.7942,-2.8099,-2.8061,-2.808,-2.8129,-2.8285,-2.8292,-2.8299,-2.8329,-2.8342,-2.8352,0,0,0,0,0,0,-2.7628,-2.7688,-2.7684,-2.778,-2.7826,-2.788,-2.7928,-2.7925,-2.7979,-2.7974,-2.7991,-2.8004,-2.8092,-2.8119,-2.8075,-2.8226,-2.8188,-2.8199,-2.8205,-2.8217,-2.8226,-2.8218,-2.8047,0,0,0,0,0,-2.7644,-2.7704,-2.7754,-2.7834,-2.7857,-2.7889,-2.7924,-2.7933,-2.7981,-2.8,-2.8035,-2.8082,-2.8142,-2.8181,-2.8239,-2.8337,-2.835,-2.838,-2.839,-2.8397,-2.8407,-2.8461,-2.8475,-2.8324,-2.8324,-2.8324,0,0,-2.7678,-2.7719,-2.7756,-2.7839,-2.7876,-2.7938,-2.7905,-2.7972,-2.8018,-2.801,-2.8094,-2.8122,-2.8175,-2.8268,-2.8311,-2.8294,-2.8451,-2.8406,-2.8412,-2.8417,-2.8469,-2.8483,-2.8496,-2.8329,-2.8328,-2.8327,0,0,-2.7772,-2.7809,-2.788,-2.7917,-2.7973,-2.7994,-2.8011,-2.8066,-2.8083,-2.8168,-2.8164,-2.8219,-2.8321,-2.836,-2.8393,-2.8502,-2.8495,-2.852,-2.857,-2.8622,-2.8634,-2.8645,-2.8683,-2.8697,-2.8529,-2.8529,-2.8529,0,-2.7808,-2.7901,-2.7916,-2.7984,-2.8021,-2.8017,-2.8089,-2.8125,-2.8196,-2.8222,-2.8201,-2.8331,-2.8367,-2.8468,-2.8495,-2.8522,-2.8542,-2.8513,-2.8631,-2.8642,-2.8652,-2.8689,-2.8704,-2.8532,-2.8532,-2.8531,-2.8531,0,-2.7941,-2.8006,-2.8056,-2.8126,-2.8169,-2.8238,-2.8264,-2.8306,-2.831,-2.8333,-2.8419,-2.8462,-2.8529,-2.8554,-2.8559,-2.8657,-2.8644,-2.8627,-2.859,-2.8669,-2.8704,-2.8718,-2.8536,-2.8535,-2.8534,-2.8533,0,0,-2.8053,-2.813,-2.8149,-2.818,-2.8242,-2.8292,-2.8361,-2.8426,-2.8461,-2.8511,-2.8569,-2.8657,-2.8642,-2.8679,-2.8689,-2.8735,-2.8818,-2.8713,-2.8714,-2.8731,-2.8929,-2.8941,-2.8957,-2.8815,-2.8817,-2.882,-2.8924,0,-2.8152,-2.8275,-2.8291,-2.84,-2.8459,-2.8457,-2.8517,-2.8561,-2.8585,-2.8639,-2.8664,-2.8726,-2.8701,-2.8724,-2.877,-2.8798,-2.8858,-2.8791,-2.8869,-2.8871,-2.8855,-2.8975,-2.8988,-2.9085,-2.8938,-2.894,-2.8942,0,-2.8285,-2.8339,-2.8453,-2.8507,-2.8532,-2.8586,-2.8647,-2.8699,-2.8749,-2.8763,-2.8805,-2.8809,-2.888,-2.884,-2.8939,-2.8893,-2.8926,-2.8945,-2.8949,-2.8956,-2.8911,-2.8986,-2.9116,-2.913,-2.8964,-2.8962,-2.896,0,-2.8354,-2.8455,-2.8537,-2.8564,-2.8628,-2.8666,-2.8695,-2.8742,-2.8781,-2.8834,-2.8859,-2.892,-2.8953,-2.9,-2.902,-2.8989,-2.9118,-2.9079,-2.9131,-2.913,-2.9158,-2.9155,-2.9294,-2.9179,-2.9179,-2.9179,-2.9178,0,-2.8464,-2.8534,-2.8569,-2.8619,-2.8697,-2.8715,-2.8792,-2.882,-2.8862,-2.8917,-2.8919,-2.8971,-2.8994,-2.905,-2.9066,-2.9145,-2.916,-2.9173,-2.9177,-2.9173,-2.9171,-2.9194,-2.9188,-2.9183,-2.9182,-2.9181,-2.918,0,-2.8554,-2.858,-2.8669,-2.8723,-2.8738,-2.8794,-2.884,-2.8888,-2.8911,-2.8981,-2.8998,-2.9034,-2.91,-2.9125,-2.9204,-2.9215,-2.9307,-2.9305,-2.929,-2.9291,-2.934,-2.9335,-2.9499,-2.9521,-2.9391,-2.9393,-2.9394,0,-2.8622,-2.8676,-2.8736,-2.8773,-2.8803,-2.8863,-2.8902,-2.8922,-2.8962,-2.9024,-2.9065,-2.913,-2.9183,-2.9288,-2.9321,-2.9382,-2.9382,-2.9435,-2.9391,-2.9385,-2.9382,-2.9379,-2.9384,-2.9443,-2.9444,-2.9445,-2.9446,0,-2.874,-2.875,-2.8806,-2.8867,-2.8914,-2.8963,-2.901,-2.9041,-2.9068,-2.9113,-2.918,-2.9222,-2.9303,-2.9368,-2.9431,-2.946,-2.9458,-2.946,-2.9475,-2.9471,-2.946,-2.9467,-2.9312,-2.9456,-2.9455,-2.9454,-2.9454,-2.9453,-2.8821,-2.8869,-2.8918,-2.8981,-2.9019,-2.9063,-2.9112,-2.9141,-2.9197,-2.9265,-2.9273,-2.9345,-2.9394,-2.9478,-2.9511,-2.9567,-2.9553,-2.9575,-2.958,-2.9585,-2.9589,-2.9452,-2.9579,-2.9578,-2.9578,-2.9578,-2.9578,0,-2.8939,-2.8971,-2.9028,-2.9095,-2.9144,-2.9138,-2.919,-2.9231,-2.9295,-2.9341,-2.9393,-2.947,-2.9533,-2.9571,-2.9634,-2.9672,-2.9673,-2.9688,-2.9685,-2.9692,-2.9598,-2.9578,-2.9687,-2.9687,-2.9687,-2.9687,-2.9687,-2.9687,-2.9006,-2.9086,-2.9103,-2.9202,-2.9233,-2.9304,-2.9334,-2.9375,-2.9412,-2.9498,-2.955,-2.9575,-2.9618,-2.9684,-2.9742,-2.9751,-2.9774,-2.9791,-2.9799,-2.971,-2.9699,-2.9688,-2.967,-2.9796,-2.9796,-2.9889,-2.989,-2.989]}]]